Weather History for KLBT - September, 2011

Change the Weather History Date:

Wednesday, September 21, 2011

  Actual Average Record
Temperature  
Mean Temperature 77 °F 72 °F  
Max Temperature 85 °F 83 °F 91 °F (2010)
Min Temperature 68 °F 61 °F 51 °F (2006)
Degree Days  
Heating Degree Days 0 0  
Month to date heating degree days 7 0  
Since 1 July heating degree days 7 0  
Cooling Degree Days 12 7  
Month to date cooling degree days 202 196  
Year to date cooling degree days 2157 1768  
Growing Degree Days 25 (Base 50)    
Moisture  
Dew Point 69 °F    
Average Humidity 83    
Maximum Humidity 100    
Minimum Humidity 65    
Precipitation  
Precipitation 0.00 in 0.15 in 1.13 in (1999)
Month to date precipitation 1.65 3.40  
Year to date precipitation 32.74 33.79  
Sea Level Pressure  
Sea Level Pressure 30.11 in    
Wind  
Wind Speed 4 mph (East)    
Max Wind Speed 10 mph    
Max Gust Speed 14 mph    
Visibility 6 miles    
Events Fog    
T = Trace of Precipitation, MM = Missing Value Source: NWS Daily Summary

Daily Weather History Graph

Daily Weather History Graph

Search for Another Location

Airport or City:

Trip Planner

Search our weather history database for the weather conditions in past years. The results will help you decide how hot, cold, wet, or windy it might be!

Date:

Astronomy

Sep. 21, 2011 Rise Set
Actual Time 7:03 AM EDT 7:14 PM EDT
Civil Twilight 6:38 AM EDT 7:39 PM EDT
Nautical Twilight 6:08 AM EDT 8:09 PM EDT
Astronomical Twilight 5:38 AM EDT 8:39 PM EDT
Moon 12:35 AM EDT (9/21) 3:10 PM EDT (9/21)
Length of Visible Light 13h 01m
Length of Day
12h 11m
Last Quarter, 39% of the Moon is Illuminated
Sep 21
Last Quarter
Sep 27
New
Oct 3
First Quarter
Oct 11
Full
Oct 19
Last Quarter

Hourly Weather History & Observations

Time (EDT) Temp. Heat Index Dew Point Humidity Pressure Visibility Wind Dir Wind Speed Gust Speed Precip Events Conditions
12:29 AM 69.8 °F - 66.2 °F 88% 30.12 in 5.0 mi NNE 3.5 mph - N/A   Partly Cloudy
12:54 AM 69.1 °F - 66.9 °F 93% 30.12 in 5.0 mi North 3.5 mph - N/A   Mostly Cloudy
1:45 AM 69.8 °F - 68.0 °F 94% 30.12 in 6.0 mi NNE 3.5 mph - N/A   Overcast
1:54 AM 69.1 °F - 68.0 °F 96% 30.12 in 6.0 mi NNE 3.5 mph - N/A   Overcast
2:54 AM 69.1 °F - 68.0 °F 96% 30.11 in 5.0 mi NNE 4.6 mph - N/A   Overcast
3:49 AM 69.8 °F - 68.0 °F 94% 30.10 in 3.0 mi NE 3.5 mph - N/A   Overcast
3:54 AM 69.1 °F - 68.0 °F 96% 30.10 in 3.0 mi NE 3.5 mph - N/A   Overcast
4:45 AM 69.8 °F - 68.0 °F 94% 30.09 in 2.5 mi NE 3.5 mph - N/A   Overcast
4:54 AM 69.1 °F - 68.0 °F 96% 30.09 in 2.0 mi NNE 3.5 mph - N/A   Overcast
5:05 AM 69.8 °F - 68.0 °F 94% 30.09 in 1.5 mi NE 4.6 mph - N/A   Overcast
5:18 AM 69.8 °F - 68.0 °F 94% 30.09 in 0.8 mi ENE 3.5 mph - N/A   Overcast
5:54 AM 69.1 °F - 68.0 °F 96% 30.09 in 0.8 mi NE 4.6 mph - N/A   Mist
6:54 AM 68.0 °F - 68.0 °F 100% 30.09 in 0.5 mi NE 4.6 mph - N/A Fog Fog
8:06 AM 69.8 °F - 68.0 °F 94% 30.12 in 1.0 mi Calm Calm - N/A   Overcast
8:35 AM 69.8 °F - 68.0 °F 94% 30.13 in 1.5 mi ENE 3.5 mph - N/A   Overcast
8:54 AM 69.1 °F - 69.1 °F 100% 30.13 in 1.2 mi East 4.6 mph - N/A   Overcast
9:00 AM 69.8 °F - 68.0 °F 94% 30.13 in 2.0 mi East 4.6 mph - N/A   Overcast
9:11 AM 69.8 °F - 69.8 °F 100% 30.13 in 1.8 mi ENE 4.6 mph - N/A   Overcast
9:27 AM 69.8 °F - 69.8 °F 100% 30.13 in 2.5 mi Calm Calm - N/A   Overcast
9:38 AM 69.8 °F - 69.8 °F 100% 30.13 in 4.0 mi ENE 3.5 mph - N/A   Overcast
9:54 AM 70.0 °F - 69.1 °F 97% 30.13 in 5.0 mi Calm Calm - N/A   Overcast
10:54 AM 72.0 °F - 70.0 °F 93% 30.14 in 5.0 mi Calm Calm - N/A   Overcast
11:12 AM 73.4 °F - 69.8 °F 88% 30.14 in 6.0 mi East 3.5 mph - N/A   Overcast
11:42 AM 75.2 °F - 69.8 °F 83% 30.14 in 7.0 mi Calm Calm - N/A   Overcast
11:54 AM 77.0 °F - 71.1 °F 82% 30.14 in 7.0 mi East 3.5 mph - N/A   Overcast
12:15 PM 77.0 °F - 71.6 °F 83% 30.14 in 7.0 mi Calm Calm - N/A   Mostly Cloudy
12:54 PM 80.1 °F 83.6 °F 71.1 °F 74% 30.12 in 10.0 mi Variable 5.8 mph - N/A   Partly Cloudy
1:54 PM 82.0 °F 85.9 °F 70.0 °F 67% 30.09 in 10.0 mi SSE 3.5 mph - N/A   Mostly Cloudy
2:12 PM 82.4 °F 86.3 °F 69.8 °F 66% 30.09 in 10.0 mi SSE 5.8 mph - N/A   Mostly Cloudy
2:54 PM 82.9 °F 87.0 °F 70.0 °F 65% 30.07 in 10.0 mi SE 6.9 mph - N/A   Mostly Cloudy
4:54 PM 82.0 °F 85.9 °F 70.0 °F 67% 30.04 in 10.0 mi SSE 8.1 mph - N/A   Clear
5:54 PM 78.1 °F - 70.0 °F 76% 30.04 in 10.0 mi SSE 6.9 mph - N/A   Unknown
6:54 PM 75.9 °F - 70.0 °F 82% 30.06 in 10.0 mi Calm Calm - N/A   Clear
7:33 PM 75.2 °F - 71.6 °F 89% 30.07 in 10.0 mi East 4.6 mph - N/A   Mostly Cloudy
7:54 PM 75.9 °F - 71.1 °F 85% 30.08 in 10.0 mi East 3.5 mph - N/A   Mostly Cloudy
8:49 PM 75.2 °F - 71.6 °F 89% 30.10 in 10.0 mi ESE 5.8 mph - N/A   Mostly Cloudy
8:54 PM 75.0 °F - 72.0 °F 90% 30.10 in 10.0 mi ESE 4.6 mph - N/A   Mostly Cloudy
9:54 PM 73.9 °F - 71.1 °F 91% 30.11 in 10.0 mi SE 4.6 mph - N/A   Overcast
10:54 PM 73.9 °F - 72.0 °F 93% 30.12 in 10.0 mi SSE 4.6 mph - N/A   Overcast
11:54 PM 73.9 °F - 72.0 °F 93% 30.11 in 10.0 mi SSE 6.9 mph - N/A   Mostly Cloudy